Year,Month,Day,Hour,Minute,Value (Times are PST for insolation in W/m^2)
2008,08,11,00,00,0.00
2008,08,11,00,01,0.00
2008,08,11,00,02,0.00
2008,08,11,00,03,0.00
2008,08,11,00,04,0.00
2008,08,11,00,05,0.00
2008,08,11,00,06,0.00
2008,08,11,00,07,0.00
2008,08,11,00,08,0.00
2008,08,11,00,09,0.00
2008,08,11,00,10,0.00
2008,08,11,00,11,0.00
2008,08,11,00,12,0.00
2008,08,11,00,13,0.00
2008,08,11,01,02,0.00
2008,08,11,01,03,0.00
2008,08,11,01,04,0.00
2008,08,11,01,05,0.00
2008,08,11,01,06,0.00
2008,08,11,01,07,0.00
2008,08,11,01,08,0.00
2008,08,11,01,09,0.00
2008,08,11,01,10,0.00
2008,08,11,01,11,0.00
2008,08,11,01,12,0.00
2008,08,11,01,13,0.00
2008,08,11,01,14,0.00
2008,08,11,01,15,0.00
2008,08,11,01,16,0.00
2008,08,11,01,17,0.00
2008,08,11,01,18,0.00
2008,08,11,01,19,0.00
2008,08,11,01,20,0.00
2008,08,11,01,21,0.00
2008,08,11,01,22,0.00
2008,08,11,01,23,0.00
2008,08,11,01,24,0.00
2008,08,11,01,25,0.00
2008,08,11,01,26,0.00
2008,08,11,01,27,0.00
2008,08,11,01,28,0.00
2008,08,11,01,29,0.00
2008,08,11,01,30,0.00
2008,08,11,01,31,0.00
2008,08,11,01,32,0.00
2008,08,11,01,33,0.00
2008,08,11,01,34,0.00
2008,08,11,01,35,0.00
2008,08,11,01,36,0.00
2008,08,11,01,37,0.00
2008,08,11,01,38,0.00
2008,08,11,01,39,0.00
2008,08,11,01,40,0.00
2008,08,11,01,41,0.00
2008,08,11,01,42,0.00
2008,08,11,01,43,0.00
2008,08,11,01,44,0.00
2008,08,11,01,45,0.00
2008,08,11,01,46,0.00
2008,08,11,01,47,0.00
2008,08,11,01,48,0.00
2008,08,11,01,49,0.00
2008,08,11,01,50,0.00
2008,08,11,01,51,0.00
2008,08,11,01,52,0.00
2008,08,11,01,53,0.00
2008,08,11,01,54,0.00
2008,08,11,01,55,0.00
2008,08,11,01,56,0.00
2008,08,11,01,57,0.00
2008,08,11,01,58,0.00
2008,08,11,01,59,0.00
2008,08,11,02,00,0.00
2008,08,11,02,01,0.00
2008,08,11,02,02,0.00
2008,08,11,02,03,0.00
2008,08,11,02,04,0.00
2008,08,11,02,05,0.00
2008,08,11,02,06,0.00
2008,08,11,02,07,0.00
2008,08,11,02,08,0.00
2008,08,11,02,09,0.00
2008,08,11,02,10,0.00
2008,08,11,02,11,0.00
2008,08,11,02,12,0.00
2008,08,11,02,13,0.00
2008,08,11,02,14,0.00
2008,08,11,02,15,0.00
2008,08,11,02,16,0.00
2008,08,11,02,17,0.00
2008,08,11,02,18,0.00
2008,08,11,02,19,0.00
2008,08,11,02,20,0.00
2008,08,11,02,21,0.00
2008,08,11,02,22,0.00
2008,08,11,02,23,0.00
2008,08,11,02,24,0.00
2008,08,11,02,25,0.00
2008,08,11,02,26,0.00
2008,08,11,02,27,0.00
2008,08,11,02,28,0.00
2008,08,11,02,29,0.00
2008,08,11,02,30,0.00
2008,08,11,02,31,0.00
2008,08,11,02,32,0.00
2008,08,11,02,33,0.00
2008,08,11,02,34,0.00
2008,08,11,02,35,0.00
2008,08,11,02,36,0.00
2008,08,11,02,37,0.00
2008,08,11,02,38,0.00
2008,08,11,02,39,0.00
2008,08,11,02,40,0.00
2008,08,11,02,41,0.00
2008,08,11,02,42,0.00
2008,08,11,02,43,0.00
2008,08,11,02,44,0.00
2008,08,11,02,45,0.00
2008,08,11,02,46,0.00
2008,08,11,02,47,0.00
2008,08,11,02,48,0.00
2008,08,11,02,49,0.00
2008,08,11,02,50,0.00
2008,08,11,02,51,0.00
2008,08,11,02,52,0.00
2008,08,11,02,53,0.00
2008,08,11,02,54,0.00
2008,08,11,02,55,0.00
2008,08,11,02,56,0.00
2008,08,11,02,57,0.00
2008,08,11,02,58,0.00
2008,08,11,02,59,0.00
2008,08,11,03,00,0.00
2008,08,11,03,01,0.00
2008,08,11,03,02,0.00
2008,08,11,03,03,0.00
2008,08,11,03,04,0.00
2008,08,11,03,05,0.00
2008,08,11,03,06,0.00
2008,08,11,03,07,0.00
2008,08,11,03,08,0.00
2008,08,11,03,09,0.00
2008,08,11,03,10,0.00
2008,08,11,03,11,0.00
2008,08,11,03,12,0.00
2008,08,11,03,13,0.00
2008,08,11,03,14,0.00
2008,08,11,03,15,0.00
2008,08,11,03,16,0.00
2008,08,11,03,17,0.00
2008,08,11,03,18,0.00
2008,08,11,03,19,0.00
2008,08,11,03,20,0.00
2008,08,11,03,21,0.00
2008,08,11,03,22,0.00
2008,08,11,03,23,0.00
2008,08,11,03,24,0.00
2008,08,11,03,25,0.00
2008,08,11,03,26,0.00
2008,08,11,03,27,0.00
2008,08,11,03,28,0.00
2008,08,11,03,29,0.00
2008,08,11,03,30,0.00
2008,08,11,03,31,0.00
2008,08,11,03,32,0.00
2008,08,11,03,33,0.00
2008,08,11,03,34,0.00
2008,08,11,03,35,0.00
2008,08,11,03,36,0.00
2008,08,11,03,37,0.00
2008,08,11,03,38,0.00
2008,08,11,03,39,0.00
2008,08,11,03,40,0.00
2008,08,11,03,41,0.00
2008,08,11,03,42,0.00
2008,08,11,03,43,0.00
2008,08,11,03,44,0.00
2008,08,11,03,45,0.00
2008,08,11,03,46,0.00
2008,08,11,03,47,0.00
2008,08,11,03,48,0.00
2008,08,11,03,49,0.00
2008,08,11,03,50,0.00
2008,08,11,03,51,0.00
2008,08,11,03,52,0.00
2008,08,11,03,53,0.00
2008,08,11,03,54,0.00
2008,08,11,03,55,0.00
2008,08,11,03,56,0.00
2008,08,11,03,57,0.00
2008,08,11,03,58,0.00
2008,08,11,03,59,0.00
2008,08,11,04,00,0.00
2008,08,11,04,01,0.00
2008,08,11,04,02,0.00
2008,08,11,04,03,0.00
2008,08,11,04,04,0.00
2008,08,11,04,05,0.00
2008,08,11,04,06,0.00
2008,08,11,04,07,0.00
2008,08,11,04,08,0.00
2008,08,11,04,09,0.00
2008,08,11,04,10,0.00
2008,08,11,04,11,0.00
2008,08,11,04,12,0.00
2008,08,11,04,13,0.00
2008,08,11,04,14,0.00
2008,08,11,04,15,0.00
2008,08,11,04,16,0.00
2008,08,11,04,17,0.00
2008,08,11,04,18,0.00
2008,08,11,04,19,0.00
2008,08,11,04,20,0.00
2008,08,11,04,21,0.00
2008,08,11,04,22,0.00
2008,08,11,04,23,0.00
2008,08,11,04,24,0.00
2008,08,11,04,25,0.00
2008,08,11,04,26,0.00
2008,08,11,04,27,0.00
2008,08,11,04,28,0.00
2008,08,11,04,29,0.00
2008,08,11,04,30,0.00
2008,08,11,04,31,0.00
2008,08,11,04,32,0.00
2008,08,11,04,33,0.00
2008,08,11,04,34,0.00
2008,08,11,04,35,0.00
2008,08,11,04,36,0.00
2008,08,11,04,37,0.00
2008,08,11,04,38,0.00
2008,08,11,04,39,0.00
2008,08,11,04,40,0.00
2008,08,11,04,41,0.00
2008,08,11,04,42,0.00
2008,08,11,04,43,0.00
2008,08,11,04,44,0.00
2008,08,11,04,45,0.00
2008,08,11,04,46,0.00
2008,08,11,04,47,0.00
2008,08,11,04,48,0.00
2008,08,11,04,49,0.00
2008,08,11,04,50,0.00
2008,08,11,04,51,0.00
2008,08,11,04,52,0.00
2008,08,11,04,53,0.00
2008,08,11,04,54,0.00
2008,08,11,04,55,0.00
2008,08,11,04,56,0.00
2008,08,11,04,57,0.00
2008,08,11,04,58,0.00
2008,08,11,04,59,0.00
2008,08,11,05,00,0.00
2008,08,11,05,01,0.00
2008,08,11,05,02,0.00
2008,08,11,05,03,0.00
2008,08,11,05,04,0.00
2008,08,11,05,05,0.00
2008,08,11,05,06,0.00
2008,08,11,05,07,0.00
2008,08,11,05,08,0.00
2008,08,11,05,09,0.00
2008,08,11,05,10,0.00
2008,08,11,05,11,0.00
2008,08,11,05,12,0.00
2008,08,11,05,13,0.00
2008,08,11,05,14,0.00
2008,08,11,05,15,0.00
2008,08,11,05,16,0.00
2008,08,11,05,17,0.00
2008,08,11,05,18,0.00
2008,08,11,05,19,0.00
2008,08,11,05,20,0.00
2008,08,11,05,21,0.00
2008,08,11,05,22,0.00
2008,08,11,05,23,0.00
2008,08,11,05,24,0.00
2008,08,11,05,25,0.00
2008,08,11,05,26,0.00
2008,08,11,05,27,0.00
2008,08,11,05,28,0.00
2008,08,11,05,29,0.00
2008,08,11,05,30,0.00
2008,08,11,05,31,0.00
2008,08,11,05,32,0.00
2008,08,11,05,33,0.00
2008,08,11,05,34,0.00
2008,08,11,05,35,0.00
2008,08,11,05,36,0.00
2008,08,11,05,37,0.00
2008,08,11,05,38,0.00
2008,08,11,05,39,0.00
2008,08,11,05,40,0.00
2008,08,11,05,41,0.00
2008,08,11,05,42,0.00
2008,08,11,05,43,0.00
2008,08,11,05,44,0.00
2008,08,11,05,45,0.00
2008,08,11,05,46,0.00
2008,08,11,05,47,0.00
2008,08,11,05,48,0.00
2008,08,11,05,49,0.00
2008,08,11,05,50,0.00
2008,08,11,05,51,0.00
2008,08,11,05,52,0.00
2008,08,11,05,53,0.00
2008,08,11,05,54,0.00
2008,08,11,05,55,0.00
2008,08,11,05,56,0.00
2008,08,11,05,57,0.00
2008,08,11,05,58,0.00
2008,08,11,05,59,0.00
2008,08,11,06,00,0.00
2008,08,11,06,01,0.00
2008,08,11,06,02,0.00
2008,08,11,06,03,0.00
2008,08,11,06,04,0.00
2008,08,11,06,05,0.00
2008,08,11,06,06,0.00
2008,08,11,06,07,0.00
2008,08,11,06,08,0.00
2008,08,11,06,09,0.00
2008,08,11,06,10,0.00
2008,08,11,06,11,0.00
2008,08,11,06,12,0.00
2008,08,11,06,13,1.80
2008,08,11,06,14,5.00
2008,08,11,06,15,5.00
2008,08,11,06,16,5.00
2008,08,11,06,17,5.00
2008,08,11,06,18,6.80
2008,08,11,06,19,7.00
2008,08,11,06,20,7.00
2008,08,11,06,21,7.00
2008,08,11,06,22,7.00
2008,08,11,06,23,8.10
2008,08,11,06,24,9.00
2008,08,11,06,25,9.00
2008,08,11,06,26,9.00
2008,08,11,06,27,9.00
2008,08,11,06,28,11.00
2008,08,11,06,29,11.00
2008,08,11,06,30,11.00
2008,08,11,06,31,11.00
2008,08,11,06,32,11.00
2008,08,11,06,33,11.00
2008,08,11,06,34,11.80
2008,08,11,06,35,12.00
2008,08,11,06,36,12.00
2008,08,11,06,37,12.00
2008,08,11,06,38,12.00
2008,08,11,06,39,12.70
2008,08,11,06,40,14.00
2008,08,11,06,41,14.00
2008,08,11,06,42,14.00
2008,08,11,06,43,14.00
2008,08,11,06,44,14.00
2008,08,11,06,45,14.20
2008,08,11,06,46,16.00
2008,08,11,06,47,16.00
2008,08,11,06,48,16.00
2008,08,11,06,49,16.00
2008,08,11,06,50,16.00
2008,08,11,06,51,16.00
2008,08,11,06,52,17.70
2008,08,11,06,53,18.00
2008,08,11,06,54,18.00
2008,08,11,06,55,18.00
2008,08,11,06,56,18.00
2008,08,11,06,57,18.00
2008,08,11,06,58,18.60
2008,08,11,06,59,19.00
2008,08,11,07,00,19.00
2008,08,11,07,01,19.00
2008,08,11,07,02,19.00
2008,08,11,07,03,19.00
2008,08,11,07,04,19.50
2008,08,11,07,05,21.00
2008,08,11,07,06,21.00
2008,08,11,07,07,21.00
2008,08,11,07,08,21.00
2008,08,11,07,09,21.00
2008,08,11,07,10,22.70
2008,08,11,07,11,23.00
2008,08,11,07,12,23.00
2008,08,11,07,13,23.00
2008,08,11,07,14,23.00
2008,08,11,07,15,23.00
2008,08,11,07,16,23.00
2008,08,11,07,17,23.00
2008,08,11,07,18,23.00
2008,08,11,07,19,24.90
2008,08,11,07,20,25.00
2008,08,11,07,21,25.00
2008,08,11,07,22,25.00
2008,08,11,07,23,25.50
2008,08,11,07,24,26.00
2008,08,11,07,25,27.30
2008,08,11,07,26,28.00
2008,08,11,07,27,29.80
2008,08,11,07,28,30.10
2008,08,11,07,29,32.20
2008,08,11,07,30,33.60
2008,08,11,07,31,35.00
2008,08,11,07,32,36.10
2008,08,11,07,33,37.00
2008,08,11,07,34,38.30
2008,08,11,07,35,39.00
2008,08,11,07,36,39.90
2008,08,11,07,37,44.20
2008,08,11,07,38,46.60
2008,08,11,07,39,48.40
2008,08,11,07,40,47.00
2008,08,11,07,41,48.10
2008,08,11,07,42,50.20
2008,08,11,07,43,52.40
2008,08,11,07,44,53.90
2008,08,11,07,45,54.00
2008,08,11,07,46,53.80
2008,08,11,07,47,52.50
2008,08,11,07,48,49.70
2008,08,11,07,49,46.50
2008,08,11,07,50,43.70
2008,08,11,07,51,40.70
2008,08,11,07,52,37.60
2008,08,11,07,53,33.40
2008,08,11,07,54,32.70
2008,08,11,07,55,29.60
2008,08,11,07,56,28.00
2008,08,11,07,57,28.00
2008,08,11,07,58,26.90
2008,08,11,07,59,27.20
2008,08,11,08,00,29.40
2008,08,11,08,01,31.70
2008,08,11,08,02,34.70
2008,08,11,08,03,37.30
2008,08,11,08,04,40.90
2008,08,11,08,05,46.10
2008,08,11,08,06,53.40
2008,08,11,08,07,54.30
2008,08,11,08,08,45.50
2008,08,11,08,09,38.10
2008,08,11,08,10,37.00
2008,08,11,08,11,52.20
2008,08,11,08,12,52.70
2008,08,11,08,13,39.60
2008,08,11,08,14,32.60
2008,08,11,08,15,32.00
2008,08,11,08,16,32.00
2008,08,11,08,17,32.00
2008,08,11,08,18,32.00
2008,08,11,08,19,32.00
2008,08,11,08,20,32.00
2008,08,11,08,21,32.00
2008,08,11,08,22,32.00
2008,08,11,08,23,32.40
2008,08,11,08,24,33.00
2008,08,11,08,25,33.00
2008,08,11,08,26,33.00
2008,08,11,08,27,34.70
2008,08,11,08,28,33.10
2008,08,11,08,29,33.00
2008,08,11,08,30,33.00
2008,08,11,08,31,33.00
2008,08,11,08,32,33.00
2008,08,11,08,33,34.20
2008,08,11,08,34,35.00
2008,08,11,08,35,35.00
2008,08,11,08,36,33.20
2008,08,11,08,37,33.10
2008,08,11,08,38,35.30
2008,08,11,08,39,35.70
2008,08,11,08,40,33.00
2008,08,11,08,41,34.10
2008,08,11,08,42,35.00
2008,08,11,08,43,35.00
2008,08,11,08,44,35.00
2008,08,11,08,45,36.90
2008,08,11,08,46,53.50
2008,08,11,08,47,73.70
2008,08,11,08,48,56.20
2008,08,11,08,49,36.10
2008,08,11,08,50,35.00
2008,08,11,08,51,35.00
2008,08,11,08,52,35.00
2008,08,11,08,53,35.00
2008,08,11,08,54,39.10
2008,08,11,08,55,41.40
2008,08,11,08,56,47.20
2008,08,11,08,57,39.40
2008,08,11,08,58,37.40
2008,08,11,08,59,41.20
2008,08,11,09,00,37.20
2008,08,11,09,01,35.00
2008,08,11,09,02,43.10
2008,08,11,09,03,38.80
2008,08,11,09,04,35.00
2008,08,11,09,05,35.00
2008,08,11,09,06,36.70
2008,08,11,09,07,36.90
2008,08,11,09,08,35.00
2008,08,11,09,09,35.00
2008,08,11,09,10,35.00
2008,08,11,09,11,35.00
2008,08,11,09,12,35.00
2008,08,11,09,13,35.00
2008,08,11,09,14,35.00
2008,08,11,09,15,35.00
2008,08,11,09,16,35.00
2008,08,11,09,17,35.00
2008,08,11,09,18,36.50
2008,08,11,09,19,38.70
2008,08,11,09,20,43.40
2008,08,11,09,21,69.00
2008,08,11,09,22,69.00
2008,08,11,09,23,209.40
2008,08,11,09,24,449.10
2008,08,11,09,25,422.50
2008,08,11,09,26,404.00
2008,08,11,09,27,404.00
2008,08,11,09,28,59.20
2008,08,11,09,29,39.00
2008,08,11,09,30,39.00
2008,08,11,09,31,39.20
2008,08,11,09,32,38.80
2008,08,11,09,33,37.00
2008,08,11,09,34,42.70
2008,08,11,09,35,48.10
2008,08,11,09,36,49.00
2008,08,11,09,37,42.40
2008,08,11,09,38,88.70
2008,08,11,09,39,173.50
2008,08,11,09,40,207.10
2008,08,11,09,41,166.50
2008,08,11,09,42,155.80
2008,08,11,09,43,113.00
2008,08,11,09,44,61.80
2008,08,11,09,45,45.00
2008,08,11,09,46,40.20
2008,08,11,09,47,40.30
2008,08,11,09,48,43.20
2008,08,11,09,49,45.70
2008,08,11,09,50,50.60
2008,08,11,09,51,113.00
2008,08,11,09,52,158.00
2008,08,11,09,53,158.00
2008,08,11,09,54,485.60
2008,08,11,09,55,529.20
2008,08,11,09,56,531.00
2008,08,11,09,57,532.00
2008,08,11,09,58,534.80
2008,08,11,09,59,538.30
2008,08,11,10,00,542.10
2008,08,11,10,01,543.00
2008,08,11,10,02,546.60
2008,08,11,10,03,548.20
2008,08,11,10,04,552.30
2008,08,11,10,05,554.20
2008,08,11,10,06,555.80
2008,08,11,10,07,557.90
2008,08,11,10,08,560.20
2008,08,11,10,09,562.40
2008,08,11,10,10,565.40
2008,08,11,10,11,567.80
2008,08,11,10,12,571.00
2008,08,11,10,13,571.00
2008,08,11,10,14,572.30
2008,08,11,10,15,575.00
2008,08,11,10,16,578.50
2008,08,11,10,17,582.00
2008,08,11,10,18,583.50
2008,08,11,10,19,584.80
2008,08,11,10,20,590.30
2008,08,11,10,21,589.30
2008,08,11,10,22,592.50
2008,08,11,10,23,594.70
2008,08,11,10,24,596.90
2008,08,11,10,25,598.50
2008,08,11,10,26,609.10
2008,08,11,10,27,607.10
2008,08,11,10,28,605.00
2008,08,11,10,29,606.20
2008,08,11,10,30,610.00
2008,08,11,10,31,611.30
2008,08,11,10,32,615.70
2008,08,11,10,33,622.50
2008,08,11,10,34,628.00
2008,08,11,10,35,623.70
2008,08,11,10,36,634.00
2008,08,11,10,37,625.40
2008,08,11,10,38,626.20
2008,08,11,10,39,628.60
2008,08,11,10,40,631.00
2008,08,11,10,41,631.80
2008,08,11,10,42,634.10
2008,08,11,10,43,636.90
2008,08,11,10,44,639.50
2008,08,11,10,45,640.00
2008,08,11,10,46,641.90
2008,08,11,10,47,643.30
2008,08,11,10,48,645.50
2008,08,11,10,49,647.70
2008,08,11,10,50,649.50
2008,08,11,10,51,651.10
2008,08,11,10,52,652.00
2008,08,11,10,53,655.80
2008,08,11,10,54,657.00
2008,08,11,10,55,661.00
2008,08,11,10,56,661.00
2008,08,11,10,57,661.80
2008,08,11,10,58,664.00
2008,08,11,10,59,670.80
2008,08,11,11,00,671.30
2008,08,11,11,01,668.00
2008,08,11,11,02,683.20
2008,08,11,11,03,684.30
2008,08,11,11,04,675.40
2008,08,11,11,05,679.00
2008,08,11,11,06,680.10
2008,08,11,11,07,687.10
2008,08,11,11,08,700.80
2008,08,11,11,09,699.50
2008,08,11,11,10,696.00
2008,08,11,11,11,687.10
2008,08,11,11,12,689.00
2008,08,11,11,13,689.30
2008,08,11,11,14,691.80
2008,08,11,11,15,694.80
2008,08,11,11,16,696.00
2008,08,11,11,17,696.00
2008,08,11,11,18,697.40
2008,08,11,11,19,699.60
2008,08,11,11,20,706.30
2008,08,11,11,21,701.00
2008,08,11,11,22,701.40
2008,08,11,11,23,704.60
2008,08,11,11,24,707.60
2008,08,11,11,25,707.50
2008,08,11,11,26,710.50
2008,08,11,11,27,713.50
2008,08,11,11,28,714.80
2008,08,11,11,29,715.00
2008,08,11,11,30,715.30
2008,08,11,11,31,717.50
2008,08,11,11,32,719.00
2008,08,11,11,33,720.40
2008,08,11,11,34,723.20
2008,08,11,11,35,721.90
2008,08,11,11,36,723.40
2008,08,11,11,37,725.80
2008,08,11,11,38,728.10
2008,08,11,11,39,728.80
2008,08,11,11,40,728.90
2008,08,11,11,41,731.00
2008,08,11,11,42,731.90
2008,08,11,11,43,734.30
2008,08,11,11,44,733.50
2008,08,11,11,45,736.40
2008,08,11,11,46,737.90
2008,08,11,11,47,737.30
2008,08,11,11,48,742.00
2008,08,11,11,49,742.60
2008,08,11,11,50,744.00
2008,08,11,11,51,744.50
2008,08,11,11,52,746.30
2008,08,11,11,53,747.00
2008,08,11,11,54,748.80
2008,08,11,11,55,747.20
2008,08,11,11,56,749.80
2008,08,11,11,57,753.50
2008,08,11,11,58,753.50
2008,08,11,11,59,754.10
2008,08,11,12,00,753.10
2008,08,11,12,01,756.60
2008,08,11,12,02,758.00
2008,08,11,12,03,760.50
2008,08,11,12,04,759.40
2008,08,11,12,05,763.00
2008,08,11,12,06,763.90
2008,08,11,12,07,765.60
2008,08,11,12,08,765.50
2008,08,11,12,09,767.20
2008,08,11,12,10,768.00
2008,08,11,12,11,768.00
2008,08,11,12,12,768.00
2008,08,11,12,13,770.00
2008,08,11,12,14,770.50
2008,08,11,12,15,771.30
2008,08,11,12,16,772.00
2008,08,11,12,17,774.00
2008,08,11,12,18,775.70
2008,08,11,12,19,775.40
2008,08,11,12,20,773.20
2008,08,11,12,21,776.80
2008,08,11,12,22,773.90
2008,08,11,12,23,779.00
2008,08,11,12,24,779.00
2008,08,11,12,25,779.50
2008,08,11,12,26,781.20
2008,08,11,12,27,782.00
2008,08,11,12,28,780.40
2008,08,11,12,29,779.20
2008,08,11,12,30,783.70
2008,08,11,12,31,782.60
2008,08,11,12,32,786.00
2008,08,11,12,33,786.00
2008,08,11,12,34,786.00
2008,08,11,12,35,787.90
2008,08,11,12,36,789.00
2008,08,11,12,37,789.00
2008,08,11,12,38,790.90
2008,08,11,12,39,791.30
2008,08,11,12,40,791.90
2008,08,11,12,41,790.50
2008,08,11,12,42,793.80
2008,08,11,12,43,795.00
2008,08,11,12,44,793.70
2008,08,11,12,45,793.00
2008,08,11,12,46,794.60
2008,08,11,12,47,795.80
2008,08,11,12,48,793.50
2008,08,11,12,49,795.70
2008,08,11,12,50,797.90
2008,08,11,12,51,800.90
2008,08,11,12,52,798.80
2008,08,11,12,53,799.30
2008,08,11,12,54,798.40
2008,08,11,12,55,798.00
2008,08,11,12,56,800.00
2008,08,11,12,57,800.00
2008,08,11,12,58,800.60
2008,08,11,12,59,802.00
2008,08,11,13,00,802.00
2008,08,11,13,01,802.00
2008,08,11,13,02,802.70
2008,08,11,13,03,803.00
2008,08,11,13,04,802.10
2008,08,11,13,05,803.00
2008,08,11,13,06,803.00
2008,08,11,13,07,803.70
2008,08,11,13,08,805.00
2008,08,11,13,09,805.00
2008,08,11,13,10,806.30
2008,08,11,13,11,807.00
2008,08,11,13,12,808.80
2008,08,11,13,13,803.00
2008,08,11,13,14,803.40
2008,08,11,13,15,805.00
2008,08,11,13,16,805.80
2008,08,11,13,17,807.00
2008,08,11,13,18,807.00
2008,08,11,13,19,804.10
2008,08,11,13,20,808.10
2008,08,11,13,21,809.00
2008,08,11,13,22,807.00
2008,08,11,13,23,806.20
2008,08,11,13,24,804.90
2008,08,11,13,25,806.50
2008,08,11,13,26,803.00
2008,08,11,13,27,803.00
2008,08,11,13,28,804.60
2008,08,11,13,29,802.30
2008,08,11,13,30,807.00
2008,08,11,13,31,806.70
2008,08,11,13,32,804.50
2008,08,11,13,33,803.00
2008,08,11,13,34,803.00
2008,08,11,13,35,804.20
2008,08,11,13,36,805.00
2008,08,11,13,37,802.50
2008,08,11,13,38,802.90
2008,08,11,13,39,802.00
2008,08,11,13,40,802.00
2008,08,11,13,41,802.00
2008,08,11,13,42,802.00
2008,08,11,13,43,802.50
2008,08,11,13,44,802.40
2008,08,11,13,45,800.50
2008,08,11,13,46,800.00
2008,08,11,13,47,802.70
2008,08,11,13,48,802.00
2008,08,11,13,49,801.50
2008,08,11,13,50,800.00
2008,08,11,13,51,800.90
2008,08,11,13,52,800.80
2008,08,11,13,53,800.00
2008,08,11,13,54,800.00
2008,08,11,13,55,800.00
2008,08,11,13,56,796.40
2008,08,11,13,57,799.20
2008,08,11,13,58,797.30
2008,08,11,13,59,799.20
2008,08,11,14,00,797.10
2008,08,11,14,01,796.00
2008,08,11,14,02,796.00
2008,08,11,14,03,796.00
2008,08,11,14,04,796.00
2008,08,11,14,05,795.00
2008,08,11,14,06,795.00
2008,08,11,14,07,795.00
2008,08,11,14,08,794.20
2008,08,11,14,09,793.00
2008,08,11,14,10,791.70
2008,08,11,14,11,792.50
2008,08,11,14,12,794.80
2008,08,11,14,13,794.90
2008,08,11,14,14,792.70
2008,08,11,14,15,791.00
2008,08,11,14,16,791.00
2008,08,11,14,17,788.60
2008,08,11,14,18,787.20
2008,08,11,14,19,788.70
2008,08,11,14,20,788.20
2008,08,11,14,21,788.00
2008,08,11,14,22,787.60
2008,08,11,14,23,784.00
2008,08,11,14,24,784.00
2008,08,11,14,25,782.30
2008,08,11,14,26,781.10
2008,08,11,14,27,782.00
2008,08,11,14,28,780.60
2008,08,11,14,29,780.00
2008,08,11,14,30,777.30
2008,08,11,14,31,779.00
2008,08,11,14,32,777.00
2008,08,11,14,33,771.70
2008,08,11,14,34,775.80
2008,08,11,14,35,775.90
2008,08,11,14,36,775.00
2008,08,11,14,37,773.50
2008,08,11,14,38,770.60
2008,08,11,14,39,771.80
2008,08,11,14,40,768.00
2008,08,11,14,41,767.40
2008,08,11,14,42,766.00
2008,08,11,14,43,765.50
2008,08,11,14,44,765.60
2008,08,11,14,45,763.80
2008,08,11,14,46,764.70
2008,08,11,14,47,763.30
2008,08,11,14,48,760.90
2008,08,11,14,49,759.00
2008,08,11,14,50,758.70
2008,08,11,14,51,758.00
2008,08,11,14,52,756.90
2008,08,11,14,53,756.00
2008,08,11,14,54,754.60
2008,08,11,14,55,754.00
2008,08,11,14,56,753.90
2008,08,11,14,57,752.00
2008,08,11,14,58,751.80
2008,08,11,14,59,749.10
2008,08,11,15,00,747.70
2008,08,11,15,01,747.50
2008,08,11,15,02,744.30
2008,08,11,15,03,744.00
2008,08,11,15,04,744.00
2008,08,11,15,05,740.10
2008,08,11,15,06,738.00
2008,08,11,15,07,737.70
2008,08,11,15,08,737.00
2008,08,11,15,09,737.00
2008,08,11,15,10,737.00
2008,08,11,15,11,735.50
2008,08,11,15,12,735.00
2008,08,11,15,13,729.60
2008,08,11,15,14,728.90
2008,08,11,15,15,728.00
2008,08,11,15,16,728.00
2008,08,11,15,17,726.20
2008,08,11,15,18,726.50
2008,08,11,15,19,725.80
2008,08,11,15,20,724.00
2008,08,11,15,21,724.00
2008,08,11,15,22,721.20
2008,08,11,15,23,719.00
2008,08,11,15,24,718.50
2008,08,11,15,25,715.90
2008,08,11,15,26,715.30
2008,08,11,15,27,717.00
2008,08,11,15,28,714.90
2008,08,11,15,29,709.30
2008,08,11,15,30,708.00
2008,08,11,15,31,708.00
2008,08,11,15,32,707.40
2008,08,11,15,33,704.40
2008,08,11,15,34,702.20
2008,08,11,15,35,701.00
2008,08,11,15,36,699.10
2008,08,11,15,37,698.00
2008,08,11,15,38,696.40
2008,08,11,15,39,691.50
2008,08,11,15,40,691.00
2008,08,11,15,41,691.00
2008,08,11,15,42,689.50
2008,08,11,15,43,687.00
2008,08,11,15,44,686.50
2008,08,11,15,45,684.70
2008,08,11,15,46,682.40
2008,08,11,15,47,680.20
2008,08,11,15,48,679.30
2008,08,11,15,49,680.80
2008,08,11,15,50,675.00
2008,08,11,15,51,673.30
2008,08,11,15,52,671.90
2008,08,11,15,53,671.30
2008,08,11,15,54,668.60
2008,08,11,15,55,666.30
2008,08,11,15,56,666.00
2008,08,11,15,57,663.30
2008,08,11,15,58,657.40
2008,08,11,15,59,659.00
2008,08,11,16,00,658.20
2008,08,11,16,01,655.50
2008,08,11,16,02,654.00
2008,08,11,16,03,652.50
2008,08,11,16,04,650.30
2008,08,11,16,05,648.90
2008,08,11,16,06,646.70
2008,08,11,16,07,645.00
2008,08,11,16,08,643.20
2008,08,11,16,09,640.00
2008,08,11,16,10,637.80
2008,08,11,16,11,636.00
2008,08,11,16,12,636.00
2008,08,11,16,13,636.00
2008,08,11,16,14,631.20
2008,08,11,16,15,629.00
2008,08,11,16,16,628.10
2008,08,11,16,17,626.80
2008,08,11,16,18,625.90
2008,08,11,16,19,622.70
2008,08,11,16,20,621.30
2008,08,11,16,21,615.90
2008,08,11,16,22,616.90
2008,08,11,16,23,612.70
2008,08,11,16,24,610.40
2008,08,11,16,25,610.80
2008,08,11,16,26,607.10
2008,08,11,16,27,605.40
2008,08,11,16,28,605.00
2008,08,11,16,29,600.80
2008,08,11,16,30,598.20
2008,08,11,16,31,598.70
2008,08,11,16,32,594.00
2008,08,11,16,33,593.20
2008,08,11,16,34,590.30
2008,08,11,16,35,590.10
2008,08,11,16,36,588.70
2008,08,11,16,37,585.50
2008,08,11,16,38,584.20
2008,08,11,16,39,580.60
2008,08,11,16,40,577.90
2008,08,11,16,41,576.60
2008,08,11,16,42,573.70
2008,08,11,16,43,571.80
2008,08,11,16,44,571.40
2008,08,11,16,45,570.00
2008,08,11,16,46,567.40
2008,08,11,16,47,563.60
2008,08,11,16,48,561.10
2008,08,11,16,49,558.80
2008,08,11,16,50,557.00
2008,08,11,16,51,555.20
2008,08,11,16,52,552.00
2008,08,11,16,53,552.00
2008,08,11,16,54,547.20
2008,08,11,16,55,545.00
2008,08,11,16,56,545.00
2008,08,11,16,57,541.00
2008,08,11,16,58,540.20
2008,08,11,16,59,535.40
2008,08,11,17,00,533.60
2008,08,11,17,01,532.10
2008,08,11,17,02,529.90
2008,08,11,17,03,527.70
2008,08,11,17,04,526.20
2008,08,11,17,05,522.20
2008,08,11,17,06,519.90
2008,08,11,17,07,518.60
2008,08,11,17,08,515.70
2008,08,11,17,09,512.60
2008,08,11,17,10,510.00
2008,08,11,17,11,506.80
2008,08,11,17,12,503.90
2008,08,11,17,13,501.40
2008,08,11,17,14,499.00
2008,08,11,17,15,496.70
2008,08,11,17,16,494.00
2008,08,11,17,17,492.50
2008,08,11,17,18,490.00
2008,08,11,17,19,488.40
2008,08,11,17,20,487.00
2008,08,11,17,21,483.10
2008,08,11,17,22,480.30
2008,08,11,17,23,476.10
2008,08,11,17,24,474.20
2008,08,11,17,25,471.00
2008,08,11,17,26,470.20
2008,08,11,17,27,467.40
2008,08,11,17,28,464.70
2008,08,11,17,29,462.60
2008,08,11,17,30,461.20
2008,08,11,17,31,457.40
2008,08,11,17,32,454.90
2008,08,11,17,33,453.50
2008,08,11,17,34,450.10
2008,08,11,17,35,445.60
2008,08,11,17,36,445.00
2008,08,11,17,37,442.30
2008,08,11,17,38,441.00
2008,08,11,17,39,438.30
2008,08,11,17,40,433.90
2008,08,11,17,41,431.90
2008,08,11,17,42,430.00
2008,08,11,17,43,427.00
2008,08,11,17,44,425.60
2008,08,11,17,45,422.80
2008,08,11,17,46,420.60
2008,08,11,17,47,417.60
2008,08,11,17,48,415.20
2008,08,11,17,49,412.80
2008,08,11,17,50,410.80
2008,08,11,17,51,408.70
2008,08,11,17,52,405.20
2008,08,11,17,53,402.40
2008,08,11,17,54,399.70
2008,08,11,17,55,397.50
2008,08,11,17,56,394.50
2008,08,11,17,57,392.20
2008,08,11,17,58,387.90
2008,08,11,17,59,386.60
2008,08,11,18,00,384.30